Zurück zum Katalog

ONEWEB-0233

AktivKommunikationPO
NORAD 48795·PAYLOAD·🇬🇧 United Kingdom

Gestartet May 28, 2021 von Vostochny Cosmodrome

Loading…

Nächste Überflüge (nächste 24 Stunden)

TLE

AktuellSource: CelesTrak SupGP

Epoche: Sep 14, 2026, 16:44 UTC

1 48795C 21045AE  26257.69737685 -.00000970  00000+0 -25797-2 0  2574
2 48795  87.8982 241.3841 0002000  77.6093 315.4782 13.15549365    17

Verfolge ONEWEB-0233 in Echtzeit mit AllMySat

Download on the App Store